Qianfan Jigui 06-11

operational
NORAD ID: 62795 Int'l Des: 2025-016 Owner: YUANX Country: CN Constellation: qianfan
LEOCIRCULARPOLAR

Qianfan Jigui 06-11について

説明を読み込み中...

リアルタイム位置

3D地球を読み込み中...

次回通過

高度履歴

Altitude vs Time

uPlot chart will show altitude changes over time

軌道要素

1 62795U 25016L 25340.58320831 .00000172 00000-0 24804-3 0 9998
2 62795 88.9759 103.6947 0013628 7.9776 352.1589 13.50982161 46417
Epoch: Dec 6, 2025 • Age: 16 hours

現在のステータス

高度 1067.9 km
速度 7.33 km/s
衛星直下点 45.78°N, 64.89°W
打ち上げ日 Jan 23, 2025
運用期間 0.8 years
タイプ internet

技術仕様

分類 Payload
質量 267.00 kg
乾燥質量 267.00 kg
総質量 267.00 kg
長さ 0.30 m
直径 3.00 m
スパン 10.00 m
形状 Box+pan
製造者 SECM
バスタイプ Qianfan
フェーズステータス In Orbit
所有者/国 YUANX/CN

大規模コンステレーション

Loading constellations...